Theta_e
321 320 318 316 316 314 313 310 308 306 304 303 302 301 300 299 298 297 295 294 294 294 293 292 292 291 290 290 290 290 290 290 290 290 289 289 289 288 287 287 286 286 285
315 318 317 317 315 312 312 311 308 306 304 303 301 301 299 298 297 296 294 294 293 292 292 291 290 289 289 289 289 289 289 289 289 288 288 288 288 287 287 286 285 285 284
311 312 315 315 315 314 312 311 308 305 303 302 301 299 297 296 295 294 294 293 291 291 291 290 289 288 289 289 288 288 288 288 288 287 287 287 286 285 285 284 284 283 283
310 310 311 315 314 312 311 310 307 304 303 300 299 297 296 296 294 293 292 292 290 290 289 288 287 287 288 288 288 287 287 287 286 286 285 284 284 283 283 282 282 281 281
310 310 310 313 313 312 310 307 305 303 301 299 298 296 295 293 292 291 290 290 289 288 288 287 287 286 287 287 287 286 286 285 285 284 283 282 281 281 280 279 279 279 279
311 311 310 310 312 311 308 305 303 300 299 297 296 294 293 291 290 290 289 288 287 287 286 286 285 285 285 285 286 285 285 284 283 282 280 280 280 279 279 278 277 276 276
311 310 310 310 311 308 306 304 300 298 297 295 294 293 291 289 289 289 288 287 286 286 286 285 284 283 284 283 282 279 279 279 279 279 278 278 278 279 278 277 276 276 276
309 310 310 310 309 307 304 301 298 296 295 293 292 291 289 288 288 288 287 286 285 285 284 284 282 281 281 280 280 280 280 280 280 279 279 279 278 277 277 277 277 276 276
307 308 310 309 307 305 301 298 296 294 293 292 291 289 289 288 288 287 286 285 285 284 283 283 282 281 281 281 279 278 278 278 279 279 279 279 278 278 277 277 277 276 276
302 305 308 308 307 303 300 297 296 294 292 290 289 289 289 287 287 286 286 284 283 283 283 282 282 281 281 280 279 277 277 277 277 278 278 278 276 277 277 277 277 277 277
299 302 304 305 304 303 298 295 294 292 290 289 288 287 287 286 285 285 284 284 283 282 282 281 281 281 280 279 277 275 275 275 276 276 275 276 277 276 276 276 276 275 274
296 297 298 299 298 296 295 292 291 289 289 287 286 285 285 285 285 284 284 283 282 282 282 281 281 279 278 277 277 275 274 274 274 275 276 276 276 275 275 275 274 273 273
293 293 293 294 293 291 290 289 288 288 287 286 285 285 284 284 284 284 283 282 282 282 282 281 280 279 278 277 276 275 275 275 275 276 276 275 275 275 274 273 273 273 273
292 290 290 289 289 289 289 289 288 287 286 285 285 284 284 283 283 283 282 282 281 281 281 280 279 278 277 276 275 276 276 276 275 276 276 275 275 273 273 272 272 271 271
289 289 289 288 288 288 288 288 287 287 286 285 285 284 283 283 283 283 282 281 279 280 279 278 276 276 276 276 276 276 276 276 276 276 275 274 273 272 272 271 271 270 269
288 288 288 288 287 287 287 286 287 287 286 286 285 285 283 283 283 282 281 280 278 278 278 277 277 277 277 278 278 278 277 277 276 275 274 273 272 271 271 270 269 269 269
288 288 288 287 287 286 286 286 285 285 286 286 285 284 284 284 283 281 280 279 279 278 278 278 278 278 278 279 278 278 277 276 275 274 273 272 271 270 270 270 269 269 268
288 288 287 287 285 285 284 284 284 285 284 284 284 284 283 282 282 281 280 279 278 278 278 278 277 277 278 279 278 277 276 275 275 273 272 271 270 270 269 268 268 267 267
288 288 287 286 285 284 283 283 282 281 281 282 283 283 283 282 282 280 279 278 277 277 277 276 277 277 278 278 277 276 275 275 273 272 271 270 270 269 268 267 267 266 265
288 288 286 286 284 283 283 282 281 280 280 280 281 281 281 280 280 279 278 277 277 277 277 278 278 277 277 277 276 275 274 273 272 271 270 269 268 267 267 266 265 265 264
287 287 286 285 285 284 283 282 281 280 279 279 279 279 279 279 278 278 277 277 276 277 277 278 278 277 276 275 274 274 273 272 270 269 268 267 267 266 265 264 264 263 263
287 287 286 285 285 284 284 284 282 281 280 279 278 278 277 277 277 277 277 277 277 277 277 278 277 276 275 274 273 272 271 269 268 267 266 266 265 264 263 262 261 261 261
286 286 285 285 285 285 284 284 284 283 281 281 280 279 278 277 278 279 278 278 279 278 277 277 275 274 273 272 271 270 269 268 267 266 265 264 263 262 261 260 259 259 259
286 286 285 285 285 285 284 284 284 283 283 282 282 281 279 279 279 279 278 279 278 277 276 275 274 273 271 270 269 268 267 266 265 264 263 262 262 261 260 259 258 258 258
286 285 285 285 285 284 284 283 283 282 282 282 280 279 279 278 277 278 278 278 277 275 274 273 272 271 270 269 268 267 266 265 264 263 262 261 260 259 258 258 258 258 258
286 285 285 284 284 284 283 283 282 282 282 281 281 281 279 279 278 278 278 276 275 274 273 271 270 269 268 267 266 265 264 263 263 262 261 259 258 258 257 257 257 258 258
Wind_Speed
18 23 21 24 29 32 32 30 35 36 37 39 38 37 36 31 27 26 23 22 22 20 17 17 17 15 12 11 12 10 8 6 4 3 3 3 1 2 4 5 5 7 10
5 17 24 28 29 28 30 33 34 36 37 37 39 38 36 35 34 32 31 29 25 25 23 22 20 17 15 12 13 12 9 6 4 3 2 3 3 5 1 2 3 4 6
5 7 18 29 31 33 34 32 31 34 37 36 37 36 36 35 33 34 33 29 28 25 26 24 21 20 17 13 11 10 7 6 4 4 2 2 2 4 3 3 5 9 11
14 14 15 26 33 30 32 33 34 36 37 35 36 36 36 36 33 32 33 30 31 27 24 21 21 20 16 12 11 9 8 6 4 4 3 2 2 6 6 10 13 15 19
18 16 18 24 31 33 31 31 33 36 37 38 36 32 32 32 33 35 32 33 30 27 23 19 16 16 15 13 12 12 9 6 4 2 2 2 3 7 10 11 11 19 24
26 24 24 21 29 32 32 32 33 35 36 37 37 37 35 29 33 35 33 31 28 26 25 19 15 13 13 10 9 8 8 6 5 3 2 2 5 6 10 12 15 14 7
16 28 30 25 28 31 33 34 35 36 37 36 35 36 34 28 33 32 31 29 27 25 21 17 13 11 11 11 10 8 5 4 3 3 3 4 5 7 12 16 17 12 14
11 10 22 27 27 32 35 36 35 34 33 32 32 34 32 32 32 32 31 28 23 21 20 16 12 12 9 8 7 6 5 3 4 5 6 5 8 10 12 15 17 20 23
13 20 18 28 30 34 32 33 31 32 30 30 33 35 35 34 33 33 32 27 24 21 18 16 15 13 10 9 9 8 7 7 6 3 4 5 7 10 13 14 18 15 16
14 14 14 25 34 37 37 39 38 38 33 34 34 36 36 35 34 32 28 27 24 22 17 15 14 15 13 9 7 6 7 6 7 8 9 11 11 7 8 11 16 17 14
12 11 7 19 32 37 35 34 38 34 32 29 30 31 34 36 32 30 29 25 23 21 19 17 14 12 11 9 6 5 7 8 8 10 10 4 5 7 9 11 11 13 19
7 6 5 11 19 25 31 29 29 33 32 29 29 27 31 35 32 26 24 22 21 20 21 20 19 17 12 9 6 5 5 6 8 4 4 6 8 13 11 11 15 20 21
1 1 4 9 15 21 25 26 25 27 29 27 27 26 25 28 29 26 23 22 16 18 21 24 21 18 13 8 6 4 5 5 6 7 8 9 11 11 9 14 20 15 18
4 6 11 15 19 20 23 26 27 26 25 25 25 23 23 25 26 27 23 20 15 18 15 17 19 16 10 6 6 7 9 10 12 13 14 13 6 9 16 15 17 21 24
12 14 16 18 19 20 19 21 23 22 30 29 25 28 28 24 27 31 27 23 19 18 18 18 15 11 10 10 10 10 12 14 18 18 10 7 11 13 15 17 20 26 24
15 15 16 18 20 21 23 21 21 25 25 26 30 31 24 27 29 25 21 19 19 18 17 18 15 12 10 11 13 12 11 10 10 8 8 10 13 16 19 23 24 21 23
16 19 18 18 19 20 21 22 21 21 21 22 24 25 23 22 22 21 18 17 15 17 18 17 14 12 12 15 13 11 8 7 7 8 10 13 15 19 21 21 20 19 20
20 21 19 18 20 21 21 20 21 21 19 19 18 20 19 21 23 21 18 18 18 16 18 17 14 13 11 12 12 10 9 9 10 12 14 15 16 16 16 16 20 22 21
22 20 21 22 21 23 24 22 24 24 22 24 24 20 22 22 20 22 19 18 19 15 13 16 16 11 9 9 9 9 10 11 13 13 13 14 13 16 18 18 20 19 22
22 24 24 23 23 21 21 22 22 24 25 25 25 26 25 22 21 20 18 16 14 11 12 12 13 12 9 8 8 8 10 10 11 12 13 15 17 17 17 18 20 23 21
24 26 25 23 22 22 22 21 22 24 23 23 23 23 23 23 22 21 20 19 16 16 13 10 11 12 9 8 8 9 11 11 12 14 15 15 15 16 17 19 22 22 21
25 25 23 21 22 23 25 25 24 24 24 23 22 19 19 19 21 22 21 20 20 17 15 16 14 11 11 11 12 12 12 13 12 14 16 17 18 19 21 24 25 20 20
25 24 22 21 24 24 23 22 22 21 20 20 21 24 26 23 19 15 18 19 14 15 14 12 11 10 10 11 12 14 15 16 18 18 18 19 22 24 23 24 25 21 18
24 23 22 22 24 23 23 22 20 20 22 22 22 24 26 23 18 13 9 11 12 13 12 10 10 11 12 13 14 15 16 16 18 20 21 22 22 24 26 22 18 21 24
24 24 25 26 26 25 23 21 21 20 20 20 21 19 19 17 13 12 12 13 14 12 10 9 9 11 13 13 14 15 16 18 18 18 18 21 23 21 17 20 21 22 22
27 26 26 26 25 24 24 22 20 19 19 18 18 18 19 18 16 16 16 15 13 11 9 9 10 10 12 14 15 15 16 17 18 20 21 20 20 21 22 21 22 24 25
Wind_Direction
210 210 206 210 213 207 206 206 204 198 194 195 193 187 183 188 190 191 185 186 192 185 174 165 164 165 152 152 145 134 142 158 153 160 117 90 69 19 318 310 328 352 343
141 213 209 217 217 205 204 209 205 196 192 187 184 186 191 192 193 189 183 190 191 179 176 177 161 162 156 164 158 147 162 133 149 173 267 295 333 334 329 337 352 338 312
214 214 214 210 217 216 211 210 208 192 189 184 187 185 184 184 184 188 190 186 185 180 180 180 177 175 161 171 161 160 158 182 166 189 218 304 357 26 8 13 327 307 305
228 216 204 212 210 212 214 211 202 196 186 179 181 182 184 189 185 187 187 188 184 178 177 178 182 164 164 155 164 145 173 184 175 117 105 85 23 1 3 360 332 321 319
225 235 232 211 208 206 205 199 195 189 180 179 177 178 183 182 183 184 186 181 176 172 179 180 183 157 166 178 180 177 184 190 175 106 69 8 352 360 9 346 335 326 318
226 226 237 222 204 200 194 190 189 181 177 175 176 177 176 173 181 185 181 175 175 178 165 168 169 175 175 178 188 204 207 211 202 193 219 257 282 331 334 337 337 350 339
236 230 227 221 200 191 189 187 182 178 175 173 171 172 169 172 181 181 179 183 184 182 180 179 178 188 197 196 204 211 198 199 192 219 238 260 277 304 311 316 319 315 290
339 323 243 216 188 184 184 179 173 172 171 169 167 167 163 170 176 181 187 187 179 187 190 186 184 177 174 181 179 180 184 206 234 258 267 277 290 299 308 311 309 301 298
342 334 287 210 182 177 173 169 165 163 165 166 167 165 166 164 182 184 175 174 179 178 176 178 184 183 196 188 196 211 215 209 216 221 225 249 274 292 297 300 297 289 295
343 329 316 204 190 179 179 174 172 174 169 166 165 170 175 169 175 173 176 174 165 169 174 170 183 194 183 196 214 221 209 227 243 242 245 269 289 296 302 302 307 287 297
332 327 302 207 194 192 181 172 168 163 160 158 154 159 164 165 164 175 177 175 173 174 177 184 190 199 193 200 221 228 239 251 269 281 284 280 316 317 309 308 306 314 308
335 310 270 205 191 179 169 164 160 154 148 144 142 143 153 163 170 167 177 179 175 175 180 188 193 193 198 200 228 267 262 257 280 244 279 304 297 303 306 299 299 303 301
46 135 174 182 169 160 149 142 137 139 138 139 142 143 149 161 168 171 171 172 171 189 195 199 194 183 187 205 251 241 234 254 237 249 261 271 297 298 286 301 313 312 305
150 154 140 134 132 136 134 135 138 138 139 140 142 144 149 156 166 172 174 171 174 181 165 168 172 180 194 228 218 225 238 242 250 257 258 283 259 284 313 324 322 318 316
155 138 128 126 124 120 123 135 139 145 150 149 152 153 153 161 173 181 183 178 177 171 164 165 169 188 219 229 234 245 255 262 264 263 236 266 309 322 322 321 317 319 311
136 130 129 123 117 115 113 108 140 151 154 159 164 168 164 174 180 185 189 188 188 182 176 175 189 209 230 244 251 241 236 242 218 234 281 303 320 320 319 319 320 313 303
139 134 131 129 126 126 124 122 121 131 157 165 170 174 178 178 179 175 174 173 177 176 187 191 203 226 252 245 221 235 247 224 239 276 300 312 315 317 317 313 310 304 301
147 141 134 131 130 128 127 127 133 138 141 148 157 159 166 168 167 168 167 165 166 186 194 202 225 232 256 231 224 219 217 248 280 295 306 311 314 311 309 304 304 304 304
147 141 139 135 136 138 135 132 133 128 126 128 140 149 158 163 165 165 169 183 185 196 217 229 227 245 244 211 220 247 269 282 288 295 300 300 298 300 302 304 309 307 306
150 150 146 142 142 140 140 137 138 138 139 145 149 150 155 159 163 171 186 195 199 215 233 247 246 237 223 234 252 270 274 274 274 279 288 295 300 302 300 303 305 309 304
148 149 150 146 147 150 150 148 153 154 153 160 163 169 172 174 175 185 197 212 217 222 231 236 194 198 214 236 255 260 262 267 278 287 291 294 296 295 298 300 304 306 301
150 148 151 148 148 150 157 161 158 162 165 168 169 172 181 189 194 203 215 225 231 235 241 231 215 225 242 261 269 268 267 274 279 282 285 287 289 294 300 304 305 302 299
150 147 146 148 154 156 158 162 164 167 172 176 179 185 191 198 203 213 221 225 208 187 195 208 224 243 263 273 279 282 284 285 289 288 288 293 299 303 304 304 303 298 294
153 152 152 156 161 163 163 164 165 168 170 168 174 184 188 197 208 216 204 193 198 198 205 221 247 268 275 280 283 287 292 290 289 288 293 297 298 299 301 301 296 293 295
158 154 158 162 163 164 164 167 169 171 167 173 181 185 190 196 204 207 209 203 200 208 223 247 269 282 284 283 285 286 285 293 294 292 290 293 297 300 299 299 296 292 292
166 167 168 168 165 166 170 170 170 171 177 176 178 184 189 194 197 201 196 198 210 221 236 258 270 269 271 270 274 281 285 288 289 293 298 299 300 301 299 295 296 296 296